Location: Göttingen
(51.5413°N, 9.9158°E)
Time: 17:03:31
(UTC+02:00)

Tiros 1 despin weight - Pass Details

Date: 31 May 2022
Orbit: 591 x 639 km, 48.2° (Epoch: 04 July)

Event Time Altitude Azimuth Distance (km) Brightness Sun altitude
Rises 22:31:03 0° 277° (W) 2,858 ? -7.9°
Reaches altitude 10° 22:33:36 10° 266° (W) 1,944 ? -8.1°
Maximum altitude 22:37:22 28° 208° (SSW) 1,141 ? -8.5°
Enters shadow 22:40:51 11° 151° (SSE) 1,833 ? -8.8°
